Zurück zum Katalog

ORBCOMM FM 118

AktivKommunikationLEO
NORAD 41183·PAYLOAD·🇺🇸 United States

Gestartet Dec 22, 2015 von Cape Canaveral Space Force Station

Loading…

Nächste Überflüge (nächste 24 Stunden)

TLE

AktuellSource: Space-Track

Epoche: Sep 14, 2026, 04:00 UTC

1 41183U 15081E   26257.16716528  .00000354  00000-0  11086-3 0  9991
2 41183  47.0043 301.0391 0001680  80.6128 279.4948 14.58971309570725

Verfolge ORBCOMM FM 118 in Echtzeit mit AllMySat

Download on the App Store